• In Spain
  • List of Countries
  • For 7 days
  • Water Temperature
  • Satellite Maps
  • Weather Map
  • Weather Widgets
  • user-avatar
    Login

    Hourly Weather Ganja

    Today, 21 October, Saturday

    Time Temperature Precipitation Wind Pressure Humidity
    00:00 +15°C° 0 mm 1 mps 728 mmHg 63%
    01:00 +15°C° 0 mm 1 mps 728 mmHg 64%
    02:00 +14°C° 0 mm 1 mps 727 mmHg 65%
    03:00 +14°C° 0 mm 1 mps 727 mmHg 66%
    04:00 +14°C° 0 mm 1 mps 727 mmHg 66%
    05:00 +13°C° 0 mm 1 mps 727 mmHg 65%
    06:00 +13°C° 0 mm 1 mps 727 mmHg 65%
    07:00 +15°C° 0 mm 1 mps 727 mmHg 61%
    08:00 +16°C° 0 mm 1 mps 727 mmHg 56%
    09:00 +19°C° 0 mm 1 mps 727 mmHg 52%
    10:00 +19°C° 0 mm 1 mps 726 mmHg 50%
    11:00 +20°C° 0 mm 1 mps 726 mmHg 48%
    12:00 +21°C° 0 mm 1 mps 726 mmHg 45%
    13:00 +22°C° 0 mm 1 mps 725 mmHg 45%
    14:00 +22°C° 0 mm 1 mps 725 mmHg 45%
    15:00 +22°C° 0 mm 1 mps 725 mmHg 45%
    16:00 +21°C° 0 mm 1 mps 725 mmHg 50%
    17:00 +20°C° 0 mm 1 mps 725 mmHg 56%
    18:00 +18°C° 0 mm 1 mps 725 mmHg 61%
    19:00 +18°C° 0 mm 1 mps 725 mmHg 62%
    20:00 +18°C° 0 mm 1 mps 725 mmHg 63%
    21:00 +16°C° 0 mm 1 mps 725 mmHg 63%
    22:00 +16°C° 0 mm 1 mps 725 mmHg 64%
    23:00 +15°C° 0 mm 1 mps 724 mmHg 64%

    Tomorrow, 22 October, Sunday

    Time Temperature Precipitation Wind Pressure Humidity
    00:00 +15°C° 0 mm 1 mps 724 mmHg 64%
    01:00 +14°C° 0 mm 1 mps 724 mmHg 62%
    02:00 +14°C° 0 mm 1 mps 724 mmHg 61%
    03:00 +14°C° 0 mm 1 mps 724 mmHg 59%
    04:00 +14°C° 0 mm 1 mps 724 mmHg 57%
    05:00 +14°C° 0 mm 2 mps 724 mmHg 55%
    06:00 +13°C° 0 mm 2 mps 724 mmHg 53%
    07:00 +15°C° 0 mm 2 mps 724 mmHg 48%
    08:00 +16°C° 0 mm 2 mps 724 mmHg 43%
    09:00 +18°C° 0 mm 2 mps 724 mmHg 38%
    10:00 +19°C° 0 mm 3 mps 723 mmHg 37%
    11:00 +20°C° 0 mm 3 mps 723 mmHg 36%
    12:00 +21°C° 0 mm 3 mps 722 mmHg 35%
    13:00 +21°C° 0 mm 3 mps 722 mmHg 34%
    14:00 +21°C° 0 mm 3 mps 721 mmHg 34%
    15:00 +21°C° 0 mm 3 mps 721 mmHg 33%
    16:00 +20°C° 0 mm 2 mps 721 mmHg 37%
    17:00 +18°C° 0 mm 2 mps 721 mmHg 41%
    18:00 +18°C° 0 mm 1 mps 721 mmHg 44%
    19:00 +16°C° 0 mm 2 mps 721 mmHg 44%
    20:00 +16°C° 0 mm 2 mps 721 mmHg 44%
    21:00 +16°C° 0 mm 2 mps 722 mmHg 45%
    22:00 +15°C° 0 mm 2 mps 722 mmHg 44%
    23:00 +14°C° 0 mm 3 mps 722 mmHg 44%

    Day after tomorrow, 23 October, Monday

    Time Temperature Precipitation Wind Pressure Humidity
    00:00 +14°C° 0 mm 3 mps 722 mmHg 44%
    01:00 +14°C° 0 mm 3 mps 722 mmHg 44%
    02:00 +13°C° 0 mm 3 mps 722 mmHg 45%
    03:00 +13°C° 0 mm 3 mps 722 mmHg 45%
    04:00 +13°C° 0 mm 3 mps 723 mmHg 46%
    05:00 +12°C° 0 mm 3 mps 723 mmHg 47%
    06:00 +12°C° 0 mm 3 mps 723 mmHg 48%
    07:00 +14°C° 0 mm 4 mps 723 mmHg 45%
    08:00 +15°C° 0 mm 4 mps 724 mmHg 42%
    09:00 +18°C° 0 mm 4 mps 724 mmHg 39%
    10:00 +19°C° 0 mm 4 mps 724 mmHg 37%
    11:00 +20°C° 0 mm 4 mps 724 mmHg 36%
    12:00 +21°C° 0 mm 3 mps 724 mmHg 34%
    13:00 +21°C° 0 mm 3 mps 724 mmHg 34%
    14:00 +21°C° 0 mm 2 mps 724 mmHg 35%
    15:00 +22°C° 0 mm 1 mps 724 mmHg 35%
    16:00 +20°C° 0 mm 2 mps 725 mmHg 39%
    17:00 +19°C° 0 mm 2 mps 725 mmHg 44%
    18:00 +17°C° 0 mm 2 mps 726 mmHg 48%
    19:00 +17°C° 0 mm 3 mps 726 mmHg 51%
    20:00 +15°C° 0 mm 4 mps 726 mmHg 54%
    21:00 +14°C° 0 mm 5 mps 727 mmHg 57%
    22:00 +14°C° 0 mm 4 mps 727 mmHg 63%
    23:00 +13°C° 0 mm 4 mps 727 mmHg 68%

    24 October, Tuesday

    Time Temperature Precipitation Wind Pressure Humidity
    00:00 +13°C° 0 mm 4 mps 727 mmHg 74%
    01:00 +13°C° 0 mm 4 mps 727 mmHg 75%
    02:00 +12°C° 0 mm 3 mps 727 mmHg 76%
    03:00 +13°C° 0 mm 2 mps 727 mmHg 77%
    04:00 +13°C° 0 mm 2 mps 727 mmHg 78%
    05:00 +13°C° 0 mm 1 mps 727 mmHg 78%
    06:00 +13°C° 0 mm 1 mps 727 mmHg 79%
    07:00 +14°C° 0 mm 1 mps 727 mmHg 75%
    08:00 +14°C° 0 mm 1 mps 727 mmHg 71%
    09:00 +15°C° 0 mm 1 mps 727 mmHg 66%
    10:00 +16°C° 0 mm 1 mps 727 mmHg 63%
    11:00 +18°C° 0 mm 1 mps 726 mmHg 60%
    12:00 +19°C° 0 mm 1 mps 726 mmHg 57%
    13:00 +19°C° 0 mm 1 mps 726 mmHg 56%
    14:00 +19°C° 0 mm 1 mps 726 mmHg 55%
    15:00 +20°C° 0 mm 1 mps 726 mmHg 54%
    16:00 +19°C° 0 mm 1 mps 726 mmHg 59%
    17:00 +18°C° 0 mm 1 mps 726 mmHg 63%
    18:00 +16°C° 0 mm 1 mps 727 mmHg 68%
    19:00 +15°C° 0 mm 1 mps 727 mmHg 69%
    20:00 +15°C° 0 mm 1 mps 727 mmHg 69%
    21:00 +15°C° 0 mm 2 mps 728 mmHg 70%
    22:00 +14°C° 0 mm 1 mps 728 mmHg 71%
    23:00 +14°C° 0 mm 1 mps 728 mmHg 73%

    25 October, Wednesday

    Time Temperature Precipitation Wind Pressure Humidity
    00:00 +14°C° 0 mm 1 mps 728 mmHg 75%
    01:00 +13°C° 0 mm 1 mps 728 mmHg 76%
    02:00 +13°C° 0 mm 1 mps 728 mmHg 77%
    03:00 +13°C° 0 mm 1 mps 728 mmHg 78%
    04:00 +13°C° 0 mm 1 mps 728 mmHg 78%
    05:00 +13°C° 0 mm 1 mps 729 mmHg 78%
    06:00 +13°C° 0 mm 1 mps 729 mmHg 79%
    07:00 +14°C° 0 mm 1 mps 729 mmHg 74%
    08:00 +15°C° 0 mm 1 mps 729 mmHg 70%
    09:00 +18°C° 0 mm 1 mps 729 mmHg 65%
    10:00 +19°C° 0 mm 1 mps 729 mmHg 60%
    11:00 +20°C° 0 mm 1 mps 729 mmHg 55%
    12:00 +20°C° 0 mm 2 mps 728 mmHg 51%
    13:00 +20°C° 0 mm 2 mps 728 mmHg 49%
    14:00 +20°C° 0 mm 2 mps 728 mmHg 48%
    15:00 +21°C° 0 mm 2 mps 728 mmHg 46%
    16:00 +20°C° 0 mm 2 mps 728 mmHg 52%
    17:00 +18°C° 0 mm 2 mps 728 mmHg 58%
    18:00 +18°C° 0 mm 1 mps 729 mmHg 64%
    19:00 +17°C° 0 mm 2 mps 729 mmHg 66%
    20:00 +16°C° 0 mm 2 mps 729 mmHg 69%
    21:00 +16°C° 0 mm 2 mps 730 mmHg 71%
    22:00 +16°C° 0 mm 2 mps 730 mmHg 74%
    23:00 +15°C° 0 mm 2 mps 730 mmHg 76%

    26 October, Thursday

    Time Temperature Precipitation Wind Pressure Humidity
    00:00 +15°C° 0 mm 1 mps 730 mmHg 78%
    01:00 +14°C° 0 mm 1 mps 730 mmHg 80%
    02:00 +14°C° 0 mm 1 mps 730 mmHg 82%
    03:00 +13°C° 0 mm 0 mps 729 mmHg 84%
    04:00 +13°C° 0 mm 0 mps 729 mmHg 84%
    05:00 +14°C° 0 mm 1 mps 729 mmHg 84%
    06:00 +14°C° 0 mm 1 mps 729 mmHg 84%
    07:00 +15°C° 0 mm 1 mps 729 mmHg 80%
    08:00 +16°C° 0 mm 1 mps 729 mmHg 76%
    09:00 +18°C° 0 mm 1 mps 729 mmHg 72%
    10:00 +19°C° 0 mm 1 mps 729 mmHg 69%
    11:00 +20°C° 0 mm 1 mps 728 mmHg 65%
    12:00 +19°C° 0 mm 2 mps 728 mmHg 62%
    13:00 +20°C° 0 mm 2 mps 727 mmHg 60%
    14:00 +21°C° 0 mm 1 mps 727 mmHg 58%
    15:00 +22°C° 0 mm 1 mps 727 mmHg 56%
    16:00 +20°C° 0 mm 1 mps 727 mmHg 61%
    17:00 +19°C° 0 mm 1 mps 727 mmHg 66%
    18:00 +18°C° 0 mm 1 mps 727 mmHg 71%
    19:00 +18°C° 0 mm 1 mps 727 mmHg 72%
    20:00 +18°C° 0 mm 1 mps 727 mmHg 73%
    21:00 +16°C° 0 mm 1 mps 727 mmHg 73%
    22:00 +16°C° 0 mm 1 mps 727 mmHg 74%
    23:00 +16°C° 0 mm 1 mps 726 mmHg 75%
    Show more